Location: Newark
(35.6799°N, 139.7636°E)
Time: 14:52:00
(UTC+00:00)

Explorer 7 - Pass Details

Date: 09 December 2019
Orbit: 485 x 679 km, 50.3° (Epoch: 28 January)

Event Time Altitude Azimuth Distance (km) Brightness Sun altitude
Rises 08:24:10 0° 276° (W) 3,011 11.9 -11.4°
Reaches altitude 10° 08:27:03 10° 292° (WNW) 2,111 10.5 -11.9°
Maximum altitude 08:30:43 21° 341° (NNW) 1,529 9.1 -12.6°
Enters shadow 08:34:16 11° 28° (NNE) 2,079 9.3 -13.3°
Drops below altitude 10° 08:34:23 10° 29° (NNE) 2,111 - -13.3°
Sets 08:37:17 0° 46° (NE) 3,012 - -13.9°
